Dewpoint
57 54 46 39 31 20 15 9 6 12 14 14 26 21 23 25 21 44 60 60 63 67 70 71 71 71 71 72 71 71 70 70 70 69 68 69 68 68 67 67 67 67 67 67 68 68 67 65 65
54 39 38 36 18 14 9 8 5 8 15 26 25 24 25 25 30 57 59 60 61 67 69 70 71 71 71 72 72 71 71 71 70 69 69 69 68 67 66 66 66 66 67 68 67 67 66 65 65
50 37 35 24 16 5 5 3 0 4 15 22 22 26 29 33 43 57 60 61 61 66 67 69 71 71 71 71 71 71 71 71 70 69 69 69 68 67 67 66 66 66 67 67 65 64 64 64 64
37 31 27 17 16 10 7 4 13 13 16 16 18 23 32 44 52 57 59 60 61 65 66 70 71 71 71 71 71 71 71 70 70 69 69 69 68 68 67 67 66 65 65 66 64 63 64 65 64
35 33 24 19 17 15 11 10 7 17 15 18 18 21 28 39 55 57 58 60 60 63 67 70 71 71 70 70 70 70 70 70 69 69 69 69 68 67 68 67 66 64 64 66 64 62 63 65 65
32 27 21 14 13 13 10 10 10 11 16 17 19 20 23 39 53 57 57 60 60 63 67 69 71 71 70 70 70 70 70 70 70 69 69 69 68 67 68 66 64 64 63 64 63 62 64 65 65
32 30 24 21 16 14 12 15 11 11 12 15 20 18 22 38 48 58 58 55 59 62 64 67 69 70 70 70 69 69 69 70 70 69 69 68 68 67 67 66 65 63 64 64 64 65 65 65 65
38 29 22 18 15 15 18 18 17 19 16 14 19 17 20 33 49 53 56 57 56 62 62 65 66 68 68 69 69 69 68 69 69 68 68 67 67 67 66 66 64 64 64 63 64 65 65 65 63
35 28 20 19 18 18 18 18 18 24 24 24 21 21 30 37 50 51 50 50 54 59 61 62 64 66 66 66 67 68 68 69 68 68 67 67 67 66 65 64 63 63 63 61 63 64 65 65 61
34 25 21 20 20 18 18 19 20 20 21 23 23 23 27 32 44 49 48 46 47 52 57 60 60 64 64 64 66 67 67 68 68 67 66 67 66 65 64 62 62 61 62 61 63 64 64 61 60
32 29 24 22 23 25 27 28 25 20 20 23 23 26 26 29 32 41 48 48 47 46 48 51 55 60 61 64 67 67 66 66 66 66 65 65 65 63 61 61 61 60 59 60 61 63 61 57 56
29 29 28 27 26 26 27 28 28 26 24 26 26 27 29 29 31 35 37 44 47 46 44 46 48 52 55 58 64 65 65 65 65 64 65 64 64 61 58 58 58 58 57 57 58 61 61 56 55
24 24 26 29 28 28 29 29 29 27 26 26 26 26 27 29 31 31 31 37 41 45 46 44 47 47 48 49 51 61 63 64 64 64 64 64 63 59 57 57 56 56 56 55 58 60 59 55 54
26 26 26 29 28 28 27 27 26 25 24 24 25 25 25 25 28 31 32 33 36 40 46 47 47 47 46 46 47 47 58 64 64 64 64 64 64 60 58 55 55 55 54 54 57 58 57 56 54
29 29 29 29 28 26 26 25 25 27 26 22 21 20 22 26 28 28 34 34 36 37 41 48 49 49 48 46 46 45 45 56 64 64 65 64 63 62 60 57 54 54 54 54 57 57 56 55 53
28 27 25 23 23 25 24 20 22 20 23 24 23 25 26 29 31 32 33 37 40 39 40 42 44 47 48 47 48 47 46 58 62 63 64 64 63 62 61 59 56 54 53 56 57 55 55 53 52
28 22 20 20 23 22 24 21 23 24 25 24 24 25 27 30 32 34 43 46 50 48 46 46 46 46 48 49 49 50 50 58 60 62 63 63 63 62 62 61 59 57 55 57 56 54 54 53 52
23 22 20 19 19 19 17 19 22 24 24 24 23 23 24 26 36 42 48 49 50 51 52 51 49 47 47 50 50 51 53 55 61 60 62 63 62 62 62 61 60 58 57 57 56 54 54 53 52
23 23 21 21 19 17 16 16 18 21 21 22 22 23 28 39 41 44 44 45 47 49 50 51 51 48 48 50 50 52 55 56 58 61 61 62 62 62 62 61 60 59 57 58 56 55 54 53 53
23 22 21 21 21 19 18 17 18 18 19 18 17 29 33 36 38 39 39 40 43 45 48 50 51 52 49 51 52 55 57 58 59 60 60 59 62 62 62 61 60 59 58 58 57 55 54 55 54
18 17 17 15 15 16 16 15 15 15 14 24 30 32 33 33 31 32 34 36 38 39 42 47 51 51 52 55 54 56 56 57 57 59 60 59 61 62 62 61 61 58 58 58 57 56 54 54 53
12 14 16 16 14 13 15 11 11 11 12 27 29 30 28 26 25 25 28 30 34 36 39 42 45 48 52 53 54 55 55 55 55 57 58 58 60 60 61 61 60 59 58 58 57 57 56 55 53
6 11 12 5 5 7 11 14 12 14 11 27 29 24 21 21 23 27 28 30 32 34 35 38 40 42 46 53 53 53 54 54 54 54 55 57 58 59 60 61 60 59 59 58 57 56 55 55 53
1 1 2 2 6 8 10 12 19 21 27 27 28 26 25 27 28 30 32 33 32 31 34 36 36 37 40 45 48 51 52 52 53 54 55 55 55 57 58 59 59 59 58 58 57 56 55 54 54
-3 -2 0 -2 0 -0 8 12 17 24 27 27 27 29 30 31 31 31 31 31 32 32 31 33 34 34 36 39 41 45 48 52 52 52 53 54 54 55 56 57 58 58 58 58 57 56 55 54 53
-5 -4 -1 -2 2 5 4 13 17 23 24 26 28 28 28 29 31 31 31 32 32 32 31 32 31 31 33 35 36 38 42 46 47 48 51 53 53 53 55 56 57 58 58 58 57 57 55 55 54
2 3 2 2 3 1 0 18 18 22 19 20 21 23 26 28 29 30 31 32 32 32 32 31 31 31 29 32 32 35 35 38 43 45 47 48 53 53 54 54 55 56 57 57 57 56 56 55 55
11 10 8 4 -0 -1 -0 8 9 13 16 18 18 19 23 26 29 29 30 30 25 24 24 28 28 29 30 29 30 29 32 34 37 41 44 44 46 50 53 52 53 54 55 55 56 56 55 55 55
13 8 8 3 6 5 4 5 15 14 16 17 18 18 16 17 28 28 30 30 26 15 14 16 22 26 26 28 28 30 28 32 32 34 38 42 44 45 47 51 52 52 52 52 53 55 55 54 54
9 13 13 4 1 1 4 4 17 15 14 9 9 9 8 8 14 23 19 15 12 12 10 11 15 18 24 25 27 28 30 27 30 31 32 37 40 43 44 46 48 52 52 52 51 51 54 53 52
Wind_Speed
13 14 11 2 3 5 9 9 3 4 2 3 6 5 7 11 7 2 2 9 13 22 20 18 18 17 17 18 19 20 19 18 17 16 17 17 16 16 14 13 11 13 11 13 13 15 15 16 14
12 6 4 5 4 10 10 19 6 2 4 8 4 6 4 5 6 12 10 9 6 23 22 19 17 17 16 17 19 19 18 18 17 16 16 16 17 16 15 14 12 14 14 16 17 17 15 13 13
10 7 4 5 6 9 3 6 7 2 6 6 2 7 6 2 7 8 14 10 6 23 21 22 19 18 16 17 17 18 18 18 16 15 16 16 16 16 15 15 13 12 14 15 15 13 12 12 11
5 4 6 6 15 15 8 5 3 6 3 0 6 8 3 8 8 11 11 10 8 22 17 28 23 18 16 15 15 16 15 15 15 15 15 15 16 16 16 15 15 12 11 13 14 12 12 12 11
5 6 5 8 15 20 9 3 3 5 7 8 8 9 1 4 10 7 7 9 12 19 18 22 25 20 18 16 15 15 15 14 13 14 15 15 14 14 18 16 15 12 11 12 14 12 12 11 12
5 3 6 14 17 11 3 3 6 8 9 7 7 7 8 9 11 5 5 6 12 17 19 18 21 21 19 17 16 15 15 15 14 14 13 13 13 16 19 17 16 13 11 11 13 13 11 12 16
3 7 14 20 22 18 13 10 2 8 11 12 11 4 9 10 8 12 5 4 3 14 17 19 16 17 19 18 17 15 15 15 14 14 13 13 13 17 17 15 16 14 12 11 14 15 13 17 18
3 4 7 7 14 13 4 3 5 7 9 12 2 6 7 11 11 9 5 5 5 11 9 19 18 16 13 13 17 17 15 15 14 13 13 14 15 16 16 16 15 15 14 11 13 15 15 15 13
2 6 11 14 14 13 6 1 8 4 4 10 2 4 9 5 10 6 3 5 5 6 10 8 20 20 19 18 17 17 17 16 15 14 14 16 13 15 16 15 15 13 14 11 10 12 14 16 14
8 8 7 10 7 10 15 14 10 11 14 10 11 8 7 10 5 8 8 9 8 7 5 9 9 18 19 16 19 17 15 13 13 14 15 14 15 14 15 14 18 15 13 12 11 11 15 15 10
7 11 13 20 14 9 12 17 17 19 20 16 16 12 18 16 15 14 14 15 14 14 12 11 9 10 11 15 16 15 13 13 14 17 17 15 15 15 11 15 13 13 13 11 11 12 13 13 12
16 23 22 23 19 18 20 16 23 22 22 18 17 17 11 11 11 18 21 19 17 17 17 14 14 8 6 6 17 15 16 15 14 15 19 17 14 14 16 15 15 14 13 13 13 12 14 11 14
25 20 20 22 25 15 19 24 25 21 23 22 22 21 23 18 14 16 16 17 19 19 20 17 15 12 10 10 8 14 17 18 17 15 16 17 15 16 15 16 15 14 15 13 15 15 14 12 11
17 26 21 19 24 23 26 27 21 21 21 24 26 27 25 22 20 20 19 19 19 20 21 20 17 14 11 11 13 12 12 18 17 18 17 17 17 16 15 17 17 16 17 15 15 13 13 13 12
12 22 22 23 27 24 17 22 24 34 27 28 27 24 19 18 16 21 14 19 18 17 18 21 21 18 18 19 16 16 14 11 18 15 19 18 16 17 14 16 16 16 17 15 17 13 13 13 10
20 20 24 11 19 20 23 22 15 12 7 11 7 11 14 13 15 14 13 15 13 14 17 18 16 18 20 18 18 17 17 12 13 17 13 18 17 16 13 14 15 15 16 13 18 16 14 14 13
16 19 23 23 13 10 17 24 14 13 16 17 18 18 18 16 11 11 8 13 16 10 4 4 10 15 20 18 18 17 16 14 14 15 15 15 17 17 14 12 13 9 11 15 15 16 18 15 12
16 24 29 29 18 22 26 32 18 20 22 20 19 21 22 22 3 13 16 16 18 16 11 10 12 12 13 15 13 16 15 11 16 15 14 18 16 18 16 12 10 13 6 14 15 16 16 14 15
26 28 33 33 25 25 30 35 36 18 21 25 20 22 9 18 16 19 18 17 18 17 14 14 12 12 13 13 17 17 19 13 12 16 17 17 18 18 19 15 13 13 11 13 18 15 17 14 14
24 31 35 36 29 27 31 34 25 20 21 20 24 2 12 16 20 21 21 21 21 18 19 14 14 12 10 12 12 10 14 12 13 11 15 16 14 18 19 18 16 14 14 13 14 18 13 9 16
25 26 29 32 34 32 30 35 26 19 21 9 14 16 18 20 19 19 20 21 19 18 18 15 13 7 9 4 12 12 11 10 11 13 13 13 15 15 16 18 17 18 15 18 18 15 17 19 17
24 25 31 32 27 26 22 40 27 27 32 12 16 21 21 22 21 22 22 20 19 19 17 16 16 17 9 9 5 12 13 15 12 10 11 8 11 13 15 16 16 16 14 13 16 17 18 14 20
22 27 24 29 29 28 24 26 18 18 22 17 21 22 22 22 21 20 19 19 17 19 18 18 18 21 21 8 4 6 7 10 10 10 13 11 7 9 13 13 14 16 15 13 15 15 18 17 20
31 28 29 23 17 21 25 25 5 16 10 21 22 24 23 22 20 19 18 19 20 22 22 21 23 21 20 18 18 9 4 10 13 9 11 11 9 7 9 11 13 14 15 17 18 18 19 19 15
30 29 17 6 13 22 18 12 10 20 23 24 21 16 15 14 15 19 19 21 22 26 28 23 25 24 22 22 21 18 14 8 10 10 9 10 8 7 10 11 11 12 14 15 16 17 18 18 17
23 17 9 17 17 23 16 5 8 26 27 27 26 22 25 26 21 17 18 17 19 24 24 27 29 24 23 21 21 19 19 13 12 12 7 6 9 7 8 9 11 11 15 14 16 16 17 18 19
15 17 22 17 20 17 13 4 23 21 28 31 31 27 25 21 24 25 23 19 19 21 21 24 23 25 24 20 19 17 18 18 15 14 12 11 1 6 9 11 12 12 10 11 12 14 17 16 18
14 20 6 7 7 16 5 10 13 26 25 25 27 28 27 25 21 21 21 22 21 19 18 21 20 21 19 25 18 18 16 15 15 13 14 13 11 10 5 9 12 12 13 14 13 14 14 17 14
14 16 9 9 9 6 8 10 19 21 20 19 18 20 24 22 17 18 17 19 22 23 21 20 20 22 23 18 22 20 17 16 14 14 13 10 9 10 8 6 10 14 13 13 13 13 16 19 17
16 17 13 5 7 12 9 6 14 17 18 21 21 21 20 20 14 11 14 19 21 22 23 22 22 23 22 20 19 20 19 19 16 14 14 11 10 8 8 8 9 13 14 13 14 14 12 17 17
Wind_Direction
288 253 240 262 243 224 262 247 153 129 333 239 40 334 354 296 326 146 171 96 126 137 142 148 152 150 149 146 149 151 153 154 154 152 151 149 152 147 145 142 135 129 117 118 125 125 124 123 116
300 259 263 262 248 224 260 225 149 241 205 65 29 300 322 292 306 131 134 112 156 133 146 149 154 152 152 146 151 153 156 158 163 164 158 159 157 155 154 151 138 125 118 112 112 116 120 122 121
266 281 256 216 220 241 4 60 349 57 73 132 242 182 271 290 24 110 111 132 158 135 155 149 157 158 161 154 151 158 162 165 168 166 165 168 165 167 162 155 138 125 128 126 123 123 129 132 132
282 221 257 264 253 266 279 322 104 319 136 234 253 290 141 51 359 80 116 149 189 140 143 149 158 164 163 160 159 158 164 172 173 169 170 175 176 172 160 149 131 127 118 134 135 135 136 136 139
253 269 264 236 255 260 271 325 354 239 268 187 208 249 138 154 79 89 131 169 188 140 139 151 157 166 169 167 167 168 169 170 170 175 174 180 180 179 159 142 134 136 137 137 143 139 139 152 154
273 246 268 259 267 304 126 208 290 229 264 265 190 247 287 130 126 158 139 217 177 135 145 151 162 167 172 174 173 176 176 177 176 176 179 180 173 166 155 149 146 144 148 144 148 142 136 143 147
260 285 261 276 284 302 304 38 304 275 245 248 152 206 254 147 168 137 217 193 156 128 133 144 163 168 172 180 181 183 181 180 179 176 177 172 165 156 153 152 150 152 152 154 142 138 139 130 131
306 271 268 270 276 282 66 38 359 328 301 311 114 213 239 14 117 102 28 315 193 137 162 151 159 165 176 183 187 189 185 180 180 179 176 166 163 158 153 155 157 153 149 132 142 142 143 137 138
283 255 249 256 277 311 96 60 313 138 278 303 324 317 128 63 107 119 126 293 302 175 174 190 164 172 178 182 188 192 193 188 184 183 179 167 157 159 158 163 161 155 149 151 149 148 155 147 147
211 236 242 256 325 302 312 323 300 299 287 255 265 247 227 133 155 179 196 206 237 246 214 226 225 178 179 184 173 182 187 190 189 183 176 169 164 169 171 169 159 159 152 152 155 147 151 140 144
218 241 254 278 301 322 293 297 289 275 263 256 265 244 224 216 193 206 210 213 210 220 209 220 239 231 180 180 161 175 176 185 191 188 174 184 176 174 153 150 157 160 162 161 156 149 155 150 149
254 255 268 278 285 282 281 276 274 283 274 277 264 277 278 252 245 207 217 216 216 221 223 205 212 220 230 204 174 172 182 190 193 192 179 187 175 166 151 159 163 168 175 175 172 166 181 183 156
259 276 269 280 280 274 274 263 264 267 267 273 265 259 260 251 246 241 244 226 221 221 220 216 195 188 208 238 242 178 182 185 191 202 187 181 180 172 166 162 164 181 172 172 177 172 187 160 148
289 298 290 295 286 283 272 268 267 258 258 253 249 255 261 263 254 245 235 239 225 219 220 212 202 196 207 228 237 246 183 184 185 195 194 184 179 175 178 167 169 178 177 171 176 185 157 145 151
301 293 284 269 264 251 258 263 249 255 260 254 253 256 257 253 262 249 241 233 241 228 216 212 211 202 204 214 225 232 245 187 183 186 189 187 175 177 184 169 169 177 177 180 170 139 144 156 171
287 273 274 262 273 245 218 247 264 300 356 337 255 280 275 272 268 275 255 249 253 227 212 217 209 208 211 208 210 215 221 202 162 176 192 173 168 172 181 180 177 172 176 167 167 146 158 167 165
245 265 262 271 210 220 191 256 238 298 309 302 296 292 291 273 258 235 64 27 16 6 348 296 227 208 207 209 202 206 217 184 187 172 184 179 172 173 176 191 181 149 178 151 158 160 153 171 164
271 273 280 284 288 282 282 269 254 241 255 270 279 287 280 269 356 66 46 31 14 356 349 320 297 242 226 208 207 199 205 191 166 179 188 183 178 174 173 184 188 162 184 143 160 158 154 175 150
302 299 293 293 295 291 281 284 286 283 277 269 261 258 310 80 54 47 38 25 9 2 356 348 314 258 218 204 204 192 191 179 159 170 188 186 180 174 173 180 176 171 177 166 156 159 162 171 144
289 284 284 285 286 275 275 274 280 287 283 288 276 59 48 54 48 36 27 22 12 1 353 339 311 325 226 210 204 190 171 168 163 156 175 188 176 171 172 174 171 175 175 174 161 159 168 137 158
297 294 303 307 318 306 306 292 293 291 289 303 69 80 65 59 43 30 24 20 4 355 342 346 331 330 13 34 186 149 151 156 162 173 174 181 177 174 169 171 165 165 182 181 172 167 174 162 171
318 333 325 317 315 298 314 290 287 286 271 135 98 74 59 49 43 35 24 16 5 351 347 6 12 15 359 26 64 158 168 175 176 168 156 149 167 170 165 160 158 159 170 189 181 176 180 167 175
327 331 323 315 302 297 287 279 282 295 272 109 82 76 66 54 47 36 27 19 13 8 5 14 20 28 16 12 27 51 117 165 167 171 166 152 143 171 162 157 163 166 172 181 183 181 179 179 177
344 333 319 296 290 288 277 277 46 15 9 85 62 59 54 50 39 40 28 19 11 22 20 17 25 26 22 31 41 41 131 110 116 130 140 153 161 166 157 167 167 172 175 182 183 190 188 187 190
340 334 325 303 314 281 359 339 37 38 27 39 63 69 72 74 53 32 32 22 8 22 19 14 25 23 19 31 34 33 37 69 149 154 159 160 156 167 182 179 177 173 177 182 182 185 196 196 194
314 296 310 302 305 306 312 346 55 41 38 28 31 34 43 33 25 40 32 15 20 22 18 17 16 15 17 26 32 26 32 45 51 47 35 143 162 177 182 180 177 175 187 189 181 187 200 205 207
337 310 303 294 291 272 267 81 54 36 34 29 23 16 23 30 29 21 16 17 15 21 17 17 19 7 4 14 29 25 33 31 33 34 34 21 54 180 192 197 197 191 185 201 202 191 199 207 207
41 7 323 312 282 256 308 60 31 30 25 29 23 14 9 10 26 22 15 1 11 19 21 18 9 19 359 10 4 25 26 30 31 31 35 25 9 358 255 211 195 194 200 207 202 204 201 205 207
356 341 345 307 305 333 336 66 17 26 16 16 14 16 8 8 13 12 6 6 357 356 4 4 8 2 10 1 11 6 13 21 27 25 20 27 10 2 345 328 222 210 213 207 211 197 207 212 216
18 17 334 284 326 303 250 70 18 18 10 7 8 12 3 358 4 22 8 359 355 352 354 1 3 0 356 1 2 6 3 9 13 14 7 4 13 354 348 336 338 214 207 213 214 213 201 211 223